Showing default

OTB-3-GAZELLE, 54023

Orbit data source: Space-Track

OTB-3-GAZELLE, 54023 is a payload satellite owned by GA-EMS (US) in SSO that was launched on Fri, 07 Oct 2022 UTC via an ELECTRON launch vehicle from the Rocket Lab Launch Complex (RLLC). Payload-class satellites include a variety of spacecraft equipped with specific instruments for various scientific and technological missions. These include communications satellites like Starlink; space stations such as the ISS; scientific satellites like the Hubble; Earth observation satellites from companies like Planet Labs, Umbra, and HawkEye 360; GPS; miniature CubeSats for education and research; and military/defense satellites.

Loading next visibility...
Identifier
54023, 2022-127A
Orbit
SSO
Country
Flag of USUS
Related business
Manufacturer
GA-EMS
Mission
Operational Commercial Technology
Bus & Motor
GAZELLE, Unknown motor
Mass
118 kg wet, 118 kg dry
Launch date (UTC)
2022-10-07 (4 years ago)
Launch vehicle
ELECTRON
Launch site
Rocket Lab Launch Complex (RLLC)
Object type
Payload
Rocket body
Debris
Shape & HBR
Box + 2 Pan, 1.0 m
Radar Cross Section
0.772 m², Medium (>0.1 m² and < 1m²)

Expand to show TLE details & history
Last TLE update: 2 days ago

TLE from 2 days ago
0 OTB-3-GAZELLE
1 54023U 22127A   26171.38888135  .00000108  00000-0  45543-4 0  9993
2 54023  98.3944 163.0445 0013203 173.4675 186.6689 14.42675448194821
Epoch: 2026-06-20T09:19Z
TLE epoch observation values (Epoch: 2026-06-20T09:19:59.348Z)
Latitude
-0.00008°
Longitude
114.44302°
Altitude
761.977 km
Speed
7.468 km/s
True Right ascension
10h 52m 10s
True Declination
0° 00' 00"
Sunlit
Object was in daylight at epoch
Visualization orbit readout
Latitude
Unknown
Longitude
Unknown
Altitude
Unknown
Speed
Unknown
Apparent Right ascension
Unknown
Apparent Declination
Unknown
Sunlit
N/A
Visualization observer readout
Local Sidereal Time
21:39:24
Azimuth
Unknown
Elevation
Unknown
Doppler factor
Unknown
Orbital elements
Apogee altitude
756.193 km
Perigee altitude
737.379 km
Semi-major axis
7,124.923 km
Eccentricity
0.00132
Inclination
98.3944°
RAAN
163.0445°
Arg. of periapsis
173.4675°
True anomaly
186.65136°
Mean anomaly
186.6689°
Eccentric anomaly
186.66013°
Mean motion
3.60888 °/min
Orbital period
99.75 mins
BSTAR
0.000045543
Loading maneuver chart data...
Computing Atmospheric mass density...
Loading historical data...
Loading historical data...
Loading historical data...
Loading historical data...
Loading historical data...
Loading historical data...
Loading historical data...
Other satellites on launch #127 in the year 2022 (2022-10-07 UTC)

Documentation

Showing up to 5 results
|